Weather History for Taunton, MA

Change the Weather History Date:

Friday, February 15, 2013

  Actual Average Record
Temperature  
Mean Temperature 34 °F -  
Max Temperature 48 °F 41 °F 60 °F (1949)
Min Temperature 21 °F 20 °F -3 °F (1987)
Degree Days  
Heating Degree Days 30    
Moisture  
Dew Point 27 °F    
Average Humidity 81    
Maximum Humidity 93    
Minimum Humidity 51    
Precipitation  
Precipitation 0.00 in - - ()
Sea Level Pressure  
Sea Level Pressure 29.99 in    
Wind  
Wind Speed 2 mph (South)    
Max Wind Speed 13 mph    
Max Gust Speed 22 mph    
Visibility 5 miles    
Events Fog    
Averages and records for this station are not official NWS values.
T = Trace of Precipitation, MM = Missing Value Source: NWS Daily Summary

Daily Weather History Graph

Daily Weather History Graph

Search for Another Location

Airport:

Trip Planner

Search our weather history database for the weather conditions in past years. The results will help you decide how hot, cold, wet, or windy it might be!

Date:

Astronomy

Feb. 15, 2013 Rise Set
Actual Time 6:39 AM EST 5:17 PM EST
Civil Twilight 6:10 AM EST 5:46 PM EST
Nautical Twilight 5:38 AM EST 6:18 PM EST
Astronomical Twilight 5:06 AM EST 6:51 PM EST
Moon 9:07 AM EST (2/15) 11:22 PM EST (2/15)
Length of Visible Light 11h 35m
Length of Day
10h 38m
Waxing Crescent, 30% of the Moon is Illuminated
Feb 15
Waxing Crescent
Feb 17
First Quarter
Feb 25
Full
Mar 4
Last Quarter
Mar 11
New

Hourly Weather History & Observations

Time (EST) Temp. Windchill Dew Point Humidity Pressure Visibility Wind Dir Wind Speed Gust Speed Precip Events Conditions
12:52 AM 25.0 °F - 19.0 °F 78% 30.01 in 8.0 mi Calm Calm - N/A   Clear
1:52 AM 23.0 °F - 18.0 °F 81% 30.02 in 7.0 mi Calm Calm - N/A   Clear
2:52 AM 23.0 °F - 19.0 °F 85% 30.01 in 7.0 mi Calm Calm - N/A   Clear
3:47 AM 21.2 °F - 17.6 °F 86% 30.00 in 7.0 mi Calm Calm - N/A   Mostly Cloudy
3:52 AM 21.9 °F - 18.0 °F 85% 30.01 in 8.0 mi Calm Calm - N/A   Mostly Cloudy
4:52 AM 27.0 °F 23.0 °F 23.0 °F 85% 30.01 in 8.0 mi Variable 3.5 mph - N/A   Overcast
5:29 AM 25.0 °F - 21.0 °F 85% 30.01 in 7.0 mi Calm Calm - N/A   Partly Cloudy
5:52 AM 24.1 °F - 19.9 °F 84% 30.01 in 8.0 mi Calm Calm - N/A   Clear
6:52 AM 24.1 °F 16.0 °F 19.0 °F 81% 30.00 in 6.0 mi SE 6.9 mph - N/A   Haze
7:06 AM 28.0 °F 24.2 °F 26.1 °F 92% 30.01 in 1.5 mi SSE 3.5 mph - N/A   Clear
7:09 AM 28.0 °F - 26.1 °F 92% 30.01 in 0.8 mi Calm Calm - N/A   Clear
7:17 AM 25.0 °F - 21.9 °F 88% 30.01 in 0.2 mi Calm Calm - N/A Fog Light Freezing Fog
7:26 AM 24.1 °F - 21.0 °F 88% 30.01 in 2.0 mi Calm Calm - N/A   Mostly Cloudy
7:38 AM 26.1 °F - 23.0 °F 88% 30.02 in 1.2 mi Calm Calm - N/A   Overcast
7:45 AM 26.1 °F - 24.1 °F 92% 30.02 in 0.2 mi Calm Calm - N/A Fog Light Freezing Fog
7:52 AM 27.0 °F - 24.1 °F 89% 30.02 in 0.2 mi Calm Calm - N/A Fog Light Freezing Fog
8:00 AM 28.0 °F - 26.1 °F 92% 30.02 in 2.0 mi Calm Calm - N/A   Overcast
8:08 AM 28.9 °F - 27.0 °F 92% 30.02 in 3.0 mi Calm Calm - N/A   Mostly Cloudy
8:22 AM 32.0 °F - 30.0 °F 92% 30.02 in 2.5 mi Calm Calm - N/A   Scattered Clouds
8:44 AM 37.9 °F 33.5 °F 34.0 °F 86% 30.02 in 3.0 mi SSW 5.8 mph - N/A   Clear
8:52 AM 39.0 °F 34.8 °F 34.0 °F 82% 30.03 in 4.0 mi SSW 5.8 mph - N/A   Haze
9:52 AM 43.0 °F 36.8 °F 32.0 °F 65% 30.03 in 8.0 mi SSW 11.5 mph 19.6 mph N/A   Clear
10:52 AM 46.0 °F 41.9 °F 28.9 °F 51% 30.02 in 10.0 mi SSW 8.1 mph 18.4 mph N/A   Clear
11:52 AM 46.9 °F - 30.0 °F 52% 30.00 in 10.0 mi SSW 10.4 mph 19.6 mph N/A   Clear
12:52 PM 46.9 °F - 32.0 °F 56% 29.98 in 10.0 mi South 12.7 mph 21.9 mph N/A   Clear
1:52 PM 48.0 °F - 33.1 °F 56% 29.96 in 10.0 mi SSW 11.5 mph 17.3 mph N/A   Clear
2:52 PM 46.9 °F - 35.1 °F 63% 29.96 in 10.0 mi South 10.4 mph 20.7 mph N/A   Clear
3:52 PM 46.9 °F - 34.0 °F 61% 29.95 in 10.0 mi SSW 9.2 mph - N/A   Clear
4:52 PM 45.0 °F 41.8 °F 33.1 °F 63% 29.94 in 10.0 mi South 5.8 mph - N/A   Clear
5:52 PM 43.0 °F 38.8 °F 33.1 °F 68% 29.95 in 10.0 mi South 6.9 mph - N/A   Clear
6:52 PM 41.0 °F 36.4 °F 34.0 °F 76% 29.96 in 10.0 mi Variable 6.9 mph - N/A   Clear
7:52 PM 39.9 °F 35.8 °F 34.0 °F 79% 29.95 in 10.0 mi South 5.8 mph - N/A   Clear
8:52 PM 39.0 °F - 33.1 °F 79% 29.96 in 10.0 mi Calm Calm - N/A   Clear
9:52 PM 33.1 °F - 30.0 °F 89% 29.96 in 7.0 mi Calm Calm - N/A   Clear
10:34 PM 30.0 °F - 28.0 °F 92% 29.95 in 1.0 mi Calm Calm - N/A   Clear
10:41 PM 30.0 °F - 27.0 °F 88% 29.95 in 0.5 mi Calm Calm - N/A Fog Light Freezing Fog
10:49 PM 30.2 °F 26.7 °F 28.4 °F 93% 29.95 in 2.0 mi ESE 3.5 mph - N/A   Clear
10:52 PM 30.9 °F - 28.0 °F 89% 29.95 in 5.0 mi Calm Calm - N/A   Clear
11:05 PM 28.9 °F - 27.0 °F 92% 29.95 in 5.0 mi Calm Calm - N/A   Scattered Clouds
11:12 PM 30.0 °F - 27.0 °F 88% 29.95 in 2.5 mi Calm Calm - N/A   Mostly Cloudy
11:15 PM 30.0 °F - 27.0 °F 88% 29.95 in 1.2 mi Calm Calm - N/A   Mostly Cloudy
11:23 PM 30.0 °F - 27.0 °F 88% 29.95 in 0.2 mi Calm Calm - N/A Fog Light Freezing Fog
11:52 PM 30.9 °F - 28.9 °F 92% 29.95 in 0.2 mi Calm Calm - N/A Fog Light Freezing Fog